Maryland Science Center, MD

3:26 AM EST on December 10, 2019 (GMT -0500)
Maryland Science Center

Weather History for KDMH - October, 2019

Change the Weather History Date:

Saturday, October 12, 2019

  Actual Average Record
Temperature  
Mean Temperature 64 °F 61 °F  
Max Temperature 73 °F 70 °F 81 °F (2010)
Min Temperature 55 °F 53 °F 44 °F (2004)
Degree Days  
Heating Degree Days 1 5  
Month to date heating degree days 11 46  
Since 1 July heating degree days 11 64  
Cooling Degree Days 0 1  
Month to date cooling degree days 57 27  
Year to date cooling degree days 2046 1652  
Growing Degree Days 14 (Base 50)    
Moisture  
Dew Point 48 °F    
Average Humidity 57    
Maximum Humidity 66    
Minimum Humidity 47    
Precipitation  
Precipitation 0.00 in 0.10 in 0.69 in (2017)
Month to date precipitation 0.18 1.31  
Year to date precipitation 31.05 32.77  
Sea Level Pressure  
Sea Level Pressure 30.01 in    
Wind  
Wind Speed - (North)    
Max Wind Speed -    
Max Gust Speed -    
T = Trace of Precipitation, MM = Missing Value Source: NWS Daily Summary

Daily Weather History Graph

Daily Weather History Graph

Search for Another Location

Airport or City:

Astronomy

Oct. 12, 2019 Rise Set
Actual Time 7:12 AM EDT 6:32 PM EDT
Civil Twilight 6:46 AM EDT 6:59 PM EDT
Nautical Twilight 6:14 AM EDT 7:30 PM EDT
Astronomical Twilight 5:43 AM EDT 8:01 PM EDT
Moon 6:26 PM EDT (10/12) 5:49 AM EDT (10/12)
Length of Visible Light 12h 13m
Length of Day
11h 19m
Waxing Gibbous, 99% of the Moon is Illuminated
Oct 12
Waxing Gibbous
Oct 13
Full
Oct 21
Last Quarter
Oct 27
New
Nov 4
First Quarter

Hourly Weather History & Observations

Time (EDT) Temp. Dew Point Humidity Pressure Visibility Wind Dir Wind Speed Gust Speed Precip Events Conditions
12:54 AM 61.0 °F 44.1 °F 54% 30.04 in - North - - N/A   Unknown
1:54 AM 59.0 °F 44.1 °F 58% 30.04 in - North - - N/A   Unknown
2:54 AM 57.0 °F 45.0 °F 64% 30.02 in - North - - N/A   Unknown
3:54 AM 57.0 °F 45.0 °F 64% 30.01 in - North - - N/A   Unknown
4:54 AM 55.9 °F 45.0 °F 67% 30.01 in - North - - N/A   Unknown
5:54 AM 55.9 °F 45.0 °F 67% 30.00 in - North - - N/A   Unknown
6:54 AM 55.0 °F 45.0 °F 69% 30.01 in - North - - N/A   Unknown
7:54 AM 57.0 °F 44.1 °F 62% 30.02 in - North - - N/A   Unknown
8:54 AM 59.0 °F 45.0 °F 60% 30.01 in - North - - N/A   Unknown
9:54 AM 61.0 °F 46.0 °F 58% 30.02 in - North - - N/A   Unknown
10:54 AM 63.0 °F 48.9 °F 60% 30.01 in - North - - N/A   Unknown
11:54 AM 66.9 °F 51.1 °F 57% 30.01 in - North - - N/A   Unknown
12:54 PM 70.0 °F 52.0 °F 53% 29.99 in - North - - N/A   Unknown
1:54 PM 70.0 °F 52.0 °F 53% 29.96 in - North - - N/A   Unknown
2:54 PM 72.0 °F 52.0 °F 49% 29.96 in - North - - N/A   Unknown
3:54 PM 70.0 °F 53.1 °F 55% 29.97 in - North - - N/A   Unknown
6:54 PM 69.1 °F 52.0 °F 54% 30.00 in - North - - N/A   Unknown
7:54 PM 66.9 °F 52.0 °F 59% 30.02 in - North - - N/A   Unknown
8:54 PM 66.0 °F 52.0 °F 60% 30.03 in - North - - N/A   Unknown
9:54 PM 64.0 °F 52.0 °F 65% 30.03 in - North - - N/A   Unknown
10:54 PM 63.0 °F 50.0 °F 63% 30.04 in - North - - N/A   Unknown
11:54 PM 63.0 °F 48.9 °F 60% 30.06 in - North - - N/A   Unknown